Volver al catálogo

COSMOS 1275 DEB

ActivoPO
NORAD 39959·DEBRIS·🇷🇺 Russia

Lanzado Jun 4, 1981 desde Plesetsk Cosmodrome

Loading…

Próximos Pases (próximas 24 horas)

TLE

ObsoletoSource: Space-Track

Época: Aug 27, 2026, 15:00 UTC

1 39959U 81053NV  26239.62567281  .00000079  00000-0  65881-4 0  9999
2 39959  82.9610 205.3520 0038049 311.0916  48.6956 13.75520801613667

Sigue COSMOS 1275 DEB en tiempo real con AllMySat

Download on the App Store